TimeCDT,TemperatureF,Dew PointF,Humidity,Sea Level PressureIn,VisibilityMPH,Wind Direction,Wind SpeedMPH,Gust SpeedMPH,PrecipitationIn,Events,Conditions,WindDirDegrees,DateUTC
12:15 AM,47.8,37.6,68,30.20,10.0,NNE,5.8,-,N/A,,Overcast,20,2013-03-29 05:15:00
12:35 AM,47.5,37.8,69,30.18,10.0,NE,6.9,-,N/A,,Overcast,40,2013-03-29 05:35:00
12:55 AM,46.2,37.0,70,30.18,10.0,NE,4.6,-,N/A,,Scattered Clouds,40,2013-03-29 05:55:00
1:15 AM,44.4,36.9,75,30.20,10.0,North,6.9,-,N/A,,Clear,360,2013-03-29 06:15:00
1:35 AM,43.7,36.7,76,30.19,10.0,NNE,5.8,-,N/A,Thunderstorm,Scattered Clouds,30,2013-03-29 06:35:00
1:55 AM,43.3,36.5,77,30.18,10.0,NE,5.8,-,N/A,Thunderstorm,Scattered Clouds,50,2013-03-29 06:55:00
2:15 AM,43.3,36.5,77,30.18,10.0,ENE,4.6,-,N/A,,Overcast,70,2013-03-29 07:15:00
2:35 AM,43.0,36.5,78,30.18,10.0,NE,3.5,-,N/A,,Overcast,40,2013-03-29 07:35:00
2:55 AM,42.4,36.5,79,30.18,10.0,NNE,3.5,-,N/A,,Mostly Cloudy,30,2013-03-29 07:55:00
3:15 AM,41.5,36.1,81,30.18,10.0,NNE,4.6,-,N/A,,Scattered Clouds,30,2013-03-29 08:15:00
3:35 AM,41.0,35.8,82,30.18,10.0,North,4.6,-,N/A,,Clear,10,2013-03-29 08:35:00
3:55 AM,40.3,35.4,83,30.18,10.0,NNE,6.9,-,N/A,,Clear,30,2013-03-29 08:55:00
4:15 AM,39.6,35.6,86,30.18,10.0,NE,6.9,-,N/A,,Clear,50,2013-03-29 09:15:00
4:35 AM,39.9,35.8,85,30.18,10.0,NE,6.9,-,N/A,,Clear,50,2013-03-29 09:35:00
4:55 AM,39.4,35.4,86,30.17,10.0,NE,6.9,-,N/A,,Clear,50,2013-03-29 09:55:00
5:15 AM,38.8,35.6,88,30.17,10.0,NE,5.8,-,N/A,,Clear,40,2013-03-29 10:15:00
5:35 AM,37.9,35.8,92,30.18,7.0,NNE,4.6,-,N/A,,Clear,30,2013-03-29 10:35:00
5:55 AM,37.6,35.8,93,30.18,10.0,NE,3.5,-,N/A,,Clear,40,2013-03-29 10:55:00
6:15 AM,37.6,35.8,93,30.19,7.0,Calm,Calm,-,N/A,,Clear,0,2013-03-29 11:15:00
6:35 AM,37.8,35.8,93,30.19,7.0,NNE,3.5,-,N/A,,Clear,30,2013-03-29 11:35:00
6:55 AM,36.9,35.4,95,30.20,7.0,NNE,3.5,-,N/A,,Clear,30,2013-03-29 11:55:00
7:15 AM,36.3,34.9,95,30.20,5.0,NNE,4.6,-,N/A,,Clear,30,2013-03-29 12:15:00
7:35 AM,36.1,35.1,96,30.21,5.0,NNE,5.8,-,N/A,,Clear,20,2013-03-29 12:35:00
7:55 AM,37.6,36.1,95,30.22,7.0,NNE,5.8,-,N/A,,Clear,20,2013-03-29 12:55:00
8:15 AM,39.0,36.7,91,30.22,7.0,NNE,3.5,-,N/A,,Clear,30,2013-03-29 13:15:00
8:35 AM,40.5,37.0,88,30.22,10.0,Calm,Calm,-,N/A,,Clear,0,2013-03-29 13:35:00
8:55 AM,42.4,37.0,81,30.22,10.0,ENE,4.6,-,N/A,,Clear,60,2013-03-29 13:55:00
9:15 AM,44.8,37.0,74,30.23,10.0,East,4.6,-,N/A,,Clear,100,2013-03-29 14:15:00
9:35 AM,46.8,37.9,71,30.23,10.0,ENE,3.5,-,N/A,,Clear,60,2013-03-29 14:35:00
9:55 AM,48.7,38.7,68,30.23,10.0,ENE,3.5,-,N/A,,Clear,60,2013-03-29 14:55:00
10:15 AM,50.5,39.2,65,30.23,10.0,NE,3.5,-,N/A,,Clear,50,2013-03-29 15:15:00
10:35 AM,52.3,39.7,62,30.23,10.0,NNE,3.5,-,N/A,,Clear,20,2013-03-29 15:35:00
10:55 AM,54.3,39.9,58,30.23,10.0,NE,3.5,-,N/A,,Clear,40,2013-03-29 15:55:00
11:15 AM,55.9,39.7,55,30.23,10.0,NNE,6.9,-,N/A,,Clear,30,2013-03-29 16:15:00
11:35 AM,57.2,40.1,53,30.23,10.0,NE,6.9,-,N/A,,Clear,40,2013-03-29 16:35:00
11:55 AM,59.2,39.6,48,30.23,10.0,NE,9.2,-,N/A,,Clear,50,2013-03-29 16:55:00
12:15 PM,60.1,39.6,47,30.22,10.0,ENE,5.8,-,N/A,,Clear,70,2013-03-29 17:15:00
12:35 PM,61.5,40.1,45,30.22,10.0,ENE,4.6,-,N/A,,Clear,60,2013-03-29 17:35:00
12:55 PM,63.0,39.4,42,30.21,10.0,East,6.9,-,N/A,,Clear,90,2013-03-29 17:55:00
1:15 PM,64.0,37.4,37,30.20,10.0,ENE,5.8,-,N/A,,Clear,60,2013-03-29 18:15:00
1:35 PM,64.6,36.1,35,30.19,10.0,North,5.8,-,N/A,,Clear,10,2013-03-29 18:35:00
1:55 PM,64.9,35.8,34,30.19,10.0,NE,9.2,-,N/A,,Clear,50,2013-03-29 18:55:00
2:15 PM,65.7,34.0,31,30.18,10.0,Calm,Calm,-,N/A,,Clear,0,2013-03-29 19:15:00
2:35 PM,65.7,34.7,32,30.18,10.0,ENE,6.9,-,N/A,,Clear,60,2013-03-29 19:35:00
2:55 PM,66.2,35.6,32,30.17,10.0,NE,5.8,-,N/A,,Clear,40,2013-03-29 19:55:00
3:15 PM,66.7,36.1,32,30.17,10.0,ESE,4.6,-,N/A,,Clear,120,2013-03-29 20:15:00
3:35 PM,66.9,36.5,33,30.16,10.0,ENE,10.4,-,N/A,,Clear,60,2013-03-29 20:35:00
3:55 PM,66.6,34.0,30,30.16,10.0,NNE,8.1,-,N/A,,Clear,30,2013-03-29 20:55:00
4:15 PM,66.2,32.0,28,30.16,10.0,East,9.2,-,N/A,,Clear,100,2013-03-29 21:15:00
4:35 PM,66.4,30.4,26,30.15,10.0,ENE,9.2,-,N/A,,Clear,60,2013-03-29 21:35:00
4:55 PM,66.4,30.7,26,30.15,10.0,East,10.4,-,N/A,,Clear,80,2013-03-29 21:55:00
5:15 PM,66.2,30.2,26,30.15,10.0,ENE,10.4,-,N/A,,Clear,70,2013-03-29 22:15:00
5:35 PM,65.7,28.8,25,30.15,10.0,ENE,8.1,-,N/A,,Clear,70,2013-03-29 22:35:00
5:55 PM,65.1,30.6,27,30.15,10.0,ENE,8.1,-,N/A,,Clear,70,2013-03-29 22:55:00
6:15 PM,64.2,32.0,30,30.15,10.0,ENE,9.2,-,N/A,,Clear,70,2013-03-29 23:15:00
6:35 PM,63.0,32.9,32,30.16,10.0,East,6.9,-,N/A,,Clear,80,2013-03-29 23:35:00
6:55 PM,61.5,33.6,35,30.16,10.0,East,8.1,-,N/A,,Clear,80,2013-03-29 23:55:00
7:15 PM,59.7,32.9,36,30.16,10.0,East,6.9,-,N/A,,Clear,80,2013-03-30 00:15:00
7:35 PM,58.1,32.9,39,30.16,10.0,ENE,6.9,-,N/A,,Clear,70,2013-03-30 00:35:00
7:55 PM,56.8,33.1,41,30.16,10.0,ENE,4.6,-,N/A,,Clear,70,2013-03-30 00:55:00
8:15 PM,56.3,33.4,42,30.16,10.0,East,6.9,-,N/A,,Clear,80,2013-03-30 01:15:00
8:35 PM,55.4,33.8,44,30.16,10.0,East,6.9,-,N/A,,Clear,80,2013-03-30 01:35:00
8:55 PM,54.5,34.3,47,30.17,10.0,East,6.9,-,N/A,,Clear,80,2013-03-30 01:55:00
9:15 PM,54.1,35.2,49,30.16,10.0,East,6.9,-,N/A,,Clear,80,2013-03-30 02:15:00
9:35 PM,52.3,36.3,54,30.17,10.0,East,5.8,-,N/A,,Clear,80,2013-03-30 02:35:00
9:55 PM,51.3,36.7,57,30.17,10.0,East,6.9,-,N/A,,Clear,80,2013-03-30 02:55:00
10:15 PM,50.7,36.9,59,30.17,10.0,East,6.9,-,N/A,,Clear,90,2013-03-30 03:15:00
10:35 PM,50.4,36.7,59,30.17,10.0,East,9.2,-,N/A,,Clear,100,2013-03-30 03:35:00
10:55 PM,50.5,37.2,60,30.16,10.0,East,8.1,-,N/A,,Clear,100,2013-03-30 03:55:00
11:15 PM,50.4,37.8,62,30.16,10.0,ESE,8.1,-,N/A,,Clear,110,2013-03-30 04:15:00
11:35 PM,49.6,38.3,65,30.16,10.0,East,6.9,-,N/A,,Clear,100,2013-03-30 04:35:00
11:55 PM,48.6,38.3,68,30.16,10.0,East,6.9,-,N/A,,Clear,100,2013-03-30 04:55:00